Regional Weather Roundup
Issued by NWS

Home | Current Version | Previous Version | Graphics & Text | Print | Product List | Glossary On
Versions: 1 2 3 4 5 6 7 8 9 10 11 12 13 14 15 16 17 18 19 20 21 22 23 24 25 26 27 28 29 30 31 32 33 34 35 36 37 38 39 40 41 42 43 44 45 46 47 48 49 50
000
ASUS43 KFSD 181602
RWRSD

WEATHER ROUNDUP FOR SOUTH DAKOTA
NATIONAL WEATHER SERVICE SIOUX FALLS SD
1100 AM CDT FRI APR 18 2014

NOTE: "FAIR" INDICATES FEW OR NO CLOUDS BELOW 12,000 FEET WITH NO
SIGNIFICANT WEATHER AND/OR OBSTRUCTIONS TO VISIBILITY.


SDZ001>005-009-010-012>017-181700-
NORTHWEST AND NORTH CENTRAL SOUTH DAKOTA

CITY           SKY/WX    TMP DP  RH WIND       PRES   REMARKS
FAITH            N/A     47  34  60 SE13      29.84F
MOBRIDGE       SUNNY     49  31  49 SE22G31   29.90F
$$

SDZ012>016-024>037-041>051-057-063-072>074-181700-
SOUTHWEST AND SOUTH CENTRAL SOUTH DAKOTA

CITY           SKY/WX    TMP DP  RH WIND       PRES   REMARKS
RAPID CTY ARPT PTSUNNY   51  40  65 SE8       29.78F
PIERRE         SUNNY     54  36  50 SE20G26   29.88F
CUSTER         PTSUNNY   54  29  38 SW8       29.86F
ELLSWORTH AFB  PTSUNNY   52  40  62 S6        29.77F
PHILIP         MOSUNNY   55  40  56 SE8       29.84F
PINE RIDGE     MOSUNNY   59  39  47 S17G24    29.85F
WINNER         FAIR      60  38  43 S16G28    29.93R
$$

SDZ004>011-016>023-039-040-181700-
NORTHEAST SOUTH DAKOTA

CITY           SKY/WX    TMP DP  RH WIND       PRES   REMARKS
ABERDEEN       MOSUNNY   49  31  49 SE24G33   30.05F
WATERTOWN      CLOUDY    41  31  67 SE21G29   30.15F
$$

SDZ017-020-022-023-036>040-048>070-181700-
SOUTHEAST SOUTH DAKOTA

CITY           SKY/WX    TMP DP  RH WIND       PRES   REMARKS
SIOUX FALLS    MOSUNNY   50  33  52 SE16G24   30.17F
HURON          SUNNY     53  35  50 SE25G33   30.04F
CHAMBERLAIN      N/A     59  38  45 S22G31    29.95F
MITCHELL       SUNNY     55  37  50 S25G35    30.07F
YANKTON          N/A     55  34  44 SE23G29   30.14F
$$

ABBREVIATIONS USED IN REMARKS
   TC - TEMPERATURE IN CELSIUS
  WCI - WIND CHILL INDEX
   HX - HEAT INDEX
  VSB - VISIBILITY




USA.gov is the U.S. government's official web portal to all federal, state and local government web resources and services.